FW2970 Weather Reports


Display with metric or nautical units.
time (UTC)temp
F
wind
direction
speed
MPH
gust
MPH
rain 1hr
in
rain 24hr
in
rain mn
in
humidity
%
barometer
mb
20260503234503 52 321 10.0 17.0 0.00 0.51 0.00 48 1010.0
20260503233059 52 293 9.0 18.0 0.00 0.53 0.00 49 1009.6
20260503231559 52 283 10.0 25.0 0.00 0.53 0.00 47 1009.3
20260503230056 52 335 11.0 23.0 0.00 0.53 0.00 55 1009.0
20260503224556 52 292 13.0 21.0 0.00 0.53 0.00 50 1008.7
20260503223054 52 300 14.0 24.0 0.00 0.53 0.00 47 1008.6
20260503221553 53 307 11.0 20.0 0.00 0.53 0.00 53 1008.3
20260503220106 53 314 11.0 20.0 0.00 0.53 0.00 51 1008.2
20260503214549 52 307 14.0 21.0 0.00 0.53 0.00 54 1008.0
20260503213049 52 313 12.0 19.0 0.00 0.53 0.00 54 1007.8
20260503211601 52 332 7.0 11.0 0.00 0.53 0.00 60 1007.5
20260503210044 52 299 7.0 14.0 0.00 0.53 0.00 56 1007.3
20260503204542 52 307 14.0 22.0 0.00 0.53 0.00 54 1007.2
20260503203041 52 311 13.0 18.0 0.00 0.53 0.00 52 1007.1
20260503201540 52 316 13.0 19.0 0.00 0.53 0.00 57 1007.0
20260503200039 52 307 14.0 22.0 0.00 0.53 0.00 58 1006.9
20260503194539 52 335 12.0 22.0 0.00 0.53 0.00 60 1006.8
20260503193047 52 337 15.0 24.0 0.00 0.53 0.00 57 1006.7
20260503191538 51 313 10.0 16.0 0.00 0.53 0.00 64 1006.8
20260503190037 51 340 10.0 18.0 0.00 0.53 0.00 63 1006.9
20260503184532 50 305 13.0 19.0 0.00 0.53 0.00 62 1007.0
20260503183037 50 320 18.0 27.0 0.00 0.53 0.00 65 1007.1
20260503181552 49 35 18.0 28.0 0.00 0.53 0.00 64 1007.1
20260503180026 49 343 23.0 32.0 0.00 0.53 0.00 66 1007.0
20260503174525 49 314 19.0 31.0 0.00 0.53 0.00 70 1006.9
20260503173041 49 323 18.0 26.0 0.00 0.53 0.00 74 1006.7
20260503171523 48 309 15.0 23.0 0.00 0.53 0.00 78 1006.7
20260503120108 45 333 12.0 16.0 0.00 0.53 0.53 82 1006.7
20260503081531 48 342 16.0 22.0 0.00 0.53 0.53 80 1007.5
20260503071531 48 329 15.0 21.0 0.04 0.53 0.53 87 1008.1
20260503054516 48 304 5.0 9.0 0.07 0.48 0.48 95 1009.3
20260503053011 48 300 5.0 9.0 0.05 0.46 0.46 96 1009.4
20260503051509 48 295 5.0 8.0 0.05 0.44 0.44 96 1009.7
20260503050007 48 288 3.0 6.0 0.05 0.43 0.43 96 1009.9
20260503044506 48 293 1.0 5.0 0.04 0.41 0.41 96 1010.0
20260503043005 48 262 4.0 6.0 0.05 0.41 0.41 96 1010.6
20260503041505 48 283 0.0 0.0 0.04 0.39 0.39 95 1010.4
20260503040006 48 270 0.0 0.0 0.05 0.38 0.38 95 1010.6
20260503034503 48 316 0.0 0.0 0.07 0.37 0.37 95 1010.5
20260503033001 48 316 0.0 2.0 0.08 0.36 0.36 95 1010.6
20260503031601 48 347 1.0 3.0 0.08 0.35 0.35 95 1010.7
20260503030106 48 49 0.0 0.0 0.09 0.33 0.33 95 1010.8
20260503024602 48 49 0.0 6.0 0.10 0.31 0.31 95 1010.8
20260503023101 48 2 1.0 4.0 0.12 0.28 0.28 95 1010.9
20260503021557 48 333 1.0 2.0 0.15 0.28 0.28 95 1011.1
20260503014601 48 142 2.0 3.0 0.16 0.22 0.22 95 1011.7
20260503013107 49 128 2.0 4.0 0.14 0.18 0.18 95 1011.8
20260503011555 49 140 0.0 1.0 0.11 0.14 0.14 95 1011.7
20260503010052 49 133 1.0 3.0 0.08 0.10 0.10 94 1011.7
20260503004600 49 169 1.0 2.0 0.05 0.07 0.07 94 1011.7
20260503003052 49 219 2.0 5.0 0.04 0.05 0.05 94 1011.8
20260503001552 49 195 6.0 7.0 0.03 0.03 0.03 94 1012.0
20260503000052 49 200 4.0 5.0 0.02 0.02 0.02 94 1011.7